Home   Weather   Mons   Past weeks

Flag for Belgium Past Weather in Mons, Belgium — Yesterday and Last 2 Weeks

Now
55 °F

Passing clouds.


Feels Like: 55 °F
Forecast: 54 / 68 °F
Wind: 3 mph from South

Location: Chievres

Current Time: Jul 23, 2017 at 3:07:08 am

Latest Report: Jul 23, 2017 at 1:25 am


Visibility: N/A

Pressure: 29.89 "Hg

Humidity: 94%

Dew Point: 54 °F

Location of MonsLocation

Past Weather in Mons — Graph

°F

Mons Temperature Yesterday

Maximum temperature yesterday: 70 °F (at 3:25 pm)
Minimum temperature yesterday: 55 °F (at 2:25 am)
Average temperature yesterday: 64 °F

High & Low Weather Summary for the Past Weeks

 TemperatureHumidityPressure
High81 °F (Jul 21, 6:25 pm)100% (Jul 12, 7:25 am)30.24 "Hg (Jul 12, 7:25 am)
Low45 °F (Jul 13, 4:25 am)28% (Jul 21, 6:25 pm)29.71 "Hg (Jul 12, 8:55 am)
Average64 °F70%30.00 "Hg
* Reported Jul 8 1:35 am — Jul 23 1:25 am, Mons. Weather by CustomWeather, © 2017

Note: Actual official high and low records may vary slightly from our data, if they occured in-between our weather recording intervals... More about our weather records

Advertising

Mons Weather History for the Previous 24 Hours

Scroll right to see more
 ConditionsComfort  
Time TempWeatherWind HumidityBarometerVisibility
1:25 am
Sun, Jul 23
55 °FPassing clouds.3 mph94%29.89 "HgN/A
12:55 am57 °FOvercast.3 mph88%29.89 "HgN/A
12:25 am57 °FOvercast.3 mph88%29.89 "HgN/A
11:55 pm
Sat, Jul 22
57 °FOvercast.3 mph94%29.92 "HgN/A
11:25 pm57 °FLight rain. Overcast.7 mph88%29.92 "HgN/A
10:55 pm59 °FRain. Mostly cloudy.5 mph88%29.92 "HgN/A
10:25 pm59 °FPassing clouds.7 mph82%29.89 "HgN/A
9:55 pm61 °FMostly cloudy.10 mph83%29.89 "HgN/A
9:25 pm63 °FBroken clouds.8 mph83%29.86 "HgN/A
8:55 pm63 °FPartly sunny.7 mph83%29.86 "HgN/A
8:25 pm64 °FOvercast.7 mph78%29.86 "HgN/A
7:55 pm64 °FPartly sunny.9 mph83%29.86 "HgN/A
7:25 pm66 °FLight rain. Broken clouds.14 mph78%29.86 "HgN/A
6:55 pm70 °FPartly sunny.12 mph60%29.86 "HgN/A
6:25 pm70 °FScattered clouds.10 mph60%29.86 "HgN/A
5:55 pm70 °FPassing clouds.12 mph60%29.86 "HgN/A
5:25 pm68 °FPartly sunny.14 mph69%29.86 "HgN/A
4:55 pm66 °FPartly sunny.9 mph83%29.86 "HgN/A
4:25 pm64 °FPartly sunny.8 mph88%29.86 "HgN/A
4:13 pm64 °FHeavy rain. Overcast.10 mph83%29.89 "Hg4 mi
3:55 pm68 °FPartly sunny.16 mph69%29.86 "HgN/A
3:25 pm70 °FPartly sunny.14 mph69%29.86 "HgN/A
2:55 pm68 °FPartly sunny.10 mph78%29.86 "HgN/A
2:25 pm66 °FOvercast.9 mph78%29.89 "HgN/A
1:55 pm66 °FPartly sunny.13 mph73%29.89 "HgN/A
1:25 pm66 °FOvercast.9 mph78%29.89 "HgN/A
12:55 pm64 °FLight rain. Overcast.10 mph83%29.89 "HgN/A
12:41 pm64 °FLight rain. Overcast.10 mph78%29.89 "Hg3 mi
12:25 pm66 °FOvercast.9 mph73%29.86 "HgN/A
12:14 pm66 °FLight rain. Overcast.13 mph68%29.86 "Hg2 mi
11:55 am66 °FOvercast.12 mph64%29.86 "HgN/A
11:25 am68 °FOvercast.10 mph60%29.86 "HgN/A
10:55 am66 °FOvercast.12 mph60%29.86 "HgN/A
10:25 am68 °FOvercast.12 mph60%29.86 "HgN/A
9:55 am68 °FPartly sunny.13 mph56%29.86 "HgN/A
9:25 am68 °FPassing clouds.14 mph56%29.86 "HgN/A
8:55 am68 °FPassing clouds.10 mph53%29.86 "HgN/A
8:25 am66 °FMild.12 mph56%29.86 "HgN/A
7:55 am64 °FMild.8 mph60%29.83 "HgN/A
7:25 am63 °FScattered clouds.8 mph64%29.83 "HgN/A
6:25 am61 °FOvercast.7 mph68%29.83 "HgN/A
5:55 am61 °FPassing clouds.6 mph68%29.83 "HgN/A
5:25 am63 °FPassing clouds.6 mph59%29.83 "HgN/A
4:55 am63 °FOvercast.5 mph64%29.80 "HgN/A
4:25 am63 °FOvercast.7 mph59%29.83 "HgN/A
3:55 am63 °FOvercast.6 mph59%29.83 "HgN/A
3:25 am61 °FPassing clouds.3 mph63%29.83 "HgN/A
Weather by CustomWeather, © 2017

See weather overviewHow to use our weather pages